This is the latest recevied weather packets stored in our database for station/object OE3PDB-3. If no packets are shown the sender has not sent any weather packets the latest 10 day(s).
| Time | Temp. | Humidity | Pressure | Rain* | Wind** | Luminosity | Snow |
|---|---|---|---|---|---|---|---|
| 1787909425 | 25° C | 49% | 1013.5 hPa | 0 mm | - | - | - |
| 1787908825 | 24.44° C | 49% | 1013.5 hPa | 0 mm | - | - | - |
| 1787908225 | 24.44° C | 49% | 1013.5 hPa | 0 mm | - | - | - |
| 1787907625 | 24.44° C | 49% | 1013.4 hPa | 0 mm | - | - | - |
| 1787907025 | 24.44° C | 49% | 1013.4 hPa | 0 mm | - | - | - |
| 1787906425 | 24.44° C | 49% | 1013.4 hPa | 0 mm | - | - | - |
| 1787905825 | 23.89° C | 49% | 1013.4 hPa | 0 mm | - | - | - |
| 1787905225 | 23.89° C | 49% | 1013.7 hPa | 0 mm | - | - | - |
| 1787904625 | 23.89° C | 50% | 1013.8 hPa | 0 mm | - | - | - |
| 1787904025 | 23.89° C | 50% | 1013.9 hPa | 0 mm | - | - | - |
| 1787903425 | 23.33° C | 49% | 1014.1 hPa | 0 mm | - | - | - |
| 1787902825 | 23.33° C | 50% | 1014 hPa | 0 mm | - | - | - |
| 1787902225 | 22.78° C | 51% | 1014 hPa | 0 mm | - | - | - |
| 1787901625 | 22.22° C | 53% | 1013.9 hPa | 0 mm | - | - | - |
| 1787901025 | 22.22° C | 54% | 1014 hPa | 0 mm | - | - | - |
| 1787900425 | 21.11° C | 57% | 1014.2 hPa | 0 mm | - | - | - |
| 1787899825 | 20° C | 59% | 1014.4 hPa | 0 mm | - | - | - |
| 1787899226 | 20° C | 60% | 1014.4 hPa | 0 mm | - | - | - |
| 1787898626 | 20° C | 60% | 1014.4 hPa | 0 mm | - | - | - |
| 1787898026 | 19.44° C | 62% | 1014.3 hPa | 0 mm | - | - | - |
| 1787897426 | 18.89° C | 62% | 1014.2 hPa | 0 mm | - | - | - |
| 1787896826 | 18.89° C | 63% | 1014.1 hPa | 0 mm | - | - | - |
| 1787896226 | 18.89° C | 63% | 1014.2 hPa | 0 mm | - | - | - |
| 1787895626 | 18.89° C | 63% | 1014.2 hPa | 0 mm | - | - | - |
| 1787895026 | 18.89° C | 64% | 1014.2 hPa | 0 mm | - | - | - |
* Rain latest hour (hover to see other rain measurements)
** Current wind speed in m/s (hover to see current wind gust speed)